DW9672 Weather Reports


Display with metric or nautical units.
time (UTC)temp
F
wind
direction
speed
MPH
gust
MPH
rain 1hr
in
rain 24hr
in
rain mn
in
humidity
%
barometer
mb
20260902140005 81 265 1.0 4.0 0.00 0.00 0.00 82 1015.5
20260902134602 80 246 0.0 3.0 0.00 0.00 0.00 84 1015.5
20260902133039 79 178 0.0 7.0 0.00 0.00 0.00 85 1015.6
20260902131538 78 178 0.0 3.0 0.00 0.00 0.00 85 1015.6
20260902130017 77 211 0.0 0.0 0.00 0.00 0.00 88 1015.7
20260902124527 75 210 0.0 0.0 0.00 0.00 0.00 91 1015.7
20260902123059 73 211 0.0 0.0 0.00 0.00 0.00 94 1015.8
20260902121607 72 215 0.0 0.0 0.00 0.00 0.00 96 1015.7
20260902120036 72 215 0.0 0.0 0.00 0.00 0.00 96 1015.6
20260902114603 72 215 0.0 0.0 0.00 0.00 0.00 96 1015.6
20260902113018 72 215 0.0 0.0 0.00 0.00 0.00 96 1015.5
20260902111519 72 215 0.0 0.0 0.00 0.00 0.00 96 1015.6
20260902104558 72 215 0.0 0.0 0.00 0.00 0.00 96 1015.7
20260902103049 72 215 0.0 0.0 0.00 0.00 0.00 95 1015.4
20260902101543 72 215 0.0 0.0 0.00 0.00 0.00 95 1015.4
20260902100042 73 215 0.0 0.0 0.00 0.00 0.00 95 1015.5
20260902094540 73 215 0.0 0.0 0.00 0.00 0.00 94 1015.4
20260902093039 73 215 0.0 0.0 0.00 0.00 0.00 94 1015.3
20260902091547 73 215 0.0 0.0 0.00 0.00 0.00 94 1015.2
20260902090048 73 215 0.0 0.0 0.00 0.00 0.00 93 1015.3
20260902084536 74 215 0.0 0.0 0.00 0.00 0.00 93 1015.2
20260902083026 74 215 0.0 0.0 0.00 0.00 0.00 93 1015.2
20260902081517 74 215 0.0 0.0 0.00 0.00 0.00 93 1015.0
20260902080103 74 210 0.0 0.0 0.00 0.00 0.00 93 1014.9
20260902074612 74 210 0.0 0.0 0.00 0.00 0.00 94 1014.9
20260902073040 74 209 0.0 0.0 0.00 0.00 0.00 94 1014.9
20260902071539 74 209 0.0 0.0 0.00 0.00 0.00 94 1014.8
20260902070021 75 209 0.0 0.0 0.00 0.00 0.00 95 1015.0
20260902064530 75 209 0.0 0.0 0.00 0.00 0.00 95 1015.1
20260902063008 75 209 0.0 0.0 0.00 0.00 0.00 95 1015.2
20260902061501 75 209 0.0 0.0 0.00 0.00 0.00 96 1015.2
20260902060053 75 209 0.0 0.0 0.00 0.00 0.00 96 1015.3
20260902054543 75 209 0.0 0.0 0.00 0.00 0.00 96 1015.3
20260902053024 75 209 0.0 0.0 0.00 0.00 0.00 96 1015.2
20260902051522 75 209 0.0 0.0 0.00 0.00 0.00 96 1015.2
20260902050007 76 209 0.0 0.0 0.00 0.00 0.00 96 1015.1
20260902044504 76 209 0.0 0.0 0.00 0.00 0.00 96 1015.1
20260902043056 76 209 0.0 0.0 0.00 0.00 0.00 96 1015.1
20260902041552 76 209 0.0 0.0 0.00 0.00 0.00 96 1015.1
20260902040051 76 209 0.0 0.0 0.00 0.00 0.00 96 1015.0
20260902034603 77 209 0.0 0.0 0.00 0.00 0.00 95 1015.1
20260902033056 77 209 0.0 0.0 0.00 0.00 0.00 95 1015.2
20260902031551 77 209 0.0 0.0 0.00 0.00 0.00 95 1015.1
20260902030047 78 209 0.0 0.0 0.00 0.00 0.00 95 1015.2
20260902024548 78 209 0.0 0.0 0.00 0.00 0.00 95 1015.2
20260902023050 78 209 0.0 0.0 0.00 0.00 0.00 94 1015.1
20260902021536 78 209 0.0 0.0 0.00 0.00 0.00 94 1015.1
20260902020035 79 209 0.0 0.0 0.00 0.00 0.00 93 1015.0
20260902014538 79 209 0.0 0.0 0.00 0.00 0.00 92 1014.9
20260902013035 80 209 0.0 0.0 0.00 0.00 0.00 92 1014.8
20260902011535 81 209 0.0 0.0 0.00 0.00 0.00 91 1014.6
20260902010035 82 209 0.0 0.0 0.00 0.00 0.00 89 1014.6
20260902004533 83 209 0.0 0.0 0.00 0.00 0.00 88 1014.4
20260902003035 84 209 0.0 0.0 0.00 0.00 0.00 86 1014.3
20260902001534 86 209 0.0 0.0 0.00 0.00 0.00 83 1014.4
20260902000033 87 209 0.0 0.0 0.00 0.00 0.00 78 1014.4
20260901234521 90 209 0.0 0.0 0.00 0.00 0.00 73 1014.5
20260901233020 92 209 0.0 0.0 0.00 0.00 0.00 69 1014.5
20260901231520 95 209 0.0 0.0 0.00 0.00 0.00 66 1014.5
20260901230019 96 209 0.0 0.0 0.00 0.00 0.00 65 1014.6
20260901224526 97 207 0.0 2.0 0.00 0.00 0.00 62 1014.5
20260901223018 96 229 0.0 0.0 0.00 0.00 0.00 63 1014.6
20260901221604 96 224 0.0 3.0 0.00 0.00 0.00 58 1014.5
20260901220116 96 217 0.0 2.0 0.00 0.00 0.00 57 1014.5
20260901214542 97 298 0.0 4.0 0.00 0.00 0.00 58 1014.4
20260901213040 96 161 0.0 3.0 0.00 0.00 0.00 58 1014.5
20260901211531 96 250 1.0 5.0 0.00 0.00 0.00 57 1014.4
20260901210023 96 234 0.0 5.0 0.00 0.00 0.00 57 1014.5
20260901204504 96 229 0.0 3.0 0.00 0.00 0.00 59 1014.6
20260901203003 95 175 1.0 4.0 0.00 0.00 0.00 59 1014.7
20260901201543 95 157 1.0 3.0 0.00 0.00 0.00 58 1014.7
20260901200040 95 297 0.0 5.0 0.00 0.00 0.00 60 1014.8
20260901194521 95 240 0.0 4.0 0.00 0.00 0.00 60 1014.8
20260901193024 94 330 0.0 5.0 0.00 0.00 0.00 61 1014.9
20260901191502 94 246 0.0 5.0 0.00 0.00 0.00 64 1015.0
20260901190100 93 186 1.0 5.0 0.00 0.00 0.00 62 1015.1
20260901184548 93 360 0.0 5.0 0.00 0.00 0.00 65 1015.2
20260901183043 92 272 0.0 4.0 0.00 0.00 0.00 67 1015.3
20260901181543 91 213 0.0 3.0 0.00 0.00 0.00 68 1015.4
20260901180039 91 268 0.0 4.0 0.00 0.00 0.00 70 1015.5
20260901174535 90 277 1.0 4.0 0.00 0.00 0.00 71 1015.5
20260901173036 89 236 2.0 5.0 0.00 0.00 0.00 71 1015.6
20260901171531 88 232 0.0 3.0 0.00 0.00 0.00 75 1015.7
20260901170055 88 229 0.0 5.0 0.00 0.00 0.00 77 1015.7
20260901164510 87 201 0.0 5.0 0.00 0.00 0.00 77 1015.8
20260901163005 86 290 0.0 5.0 0.00 0.00 0.00 76 1015.8
20260901161553 86 35 0.0 4.0 0.00 0.00 0.00 77 1016.1
20260901160051 85 227 0.0 4.0 0.00 0.00 0.00 78 1016.1
20260901154530 85 348 0.0 5.0 0.00 0.00 0.00 77 1016.2
20260901153028 84 202 1.0 5.0 0.00 0.00 0.00 78 1016.1
20260901151529 84 219 1.0 4.0 0.00 0.00 0.00 78 1016.1
20260901150035 83 300 1.0 5.0 0.00 0.00 0.00 78 1016.3
20260901144521 83 229 0.0 4.0 0.00 0.00 0.00 80 1016.2
20260901143019 82 19 0.0 0.0 0.00 0.00 0.00 81 1016.3
20260901141515 81 22 0.0 0.0 0.00 0.00 0.00 82 1016.1